Вернуться в каталог

STARLINK-37193

АктивенСвязьSSO
NORAD 68390·PAYLOAD·🇺🇸 United States

Запущен Mar 26, 2026 с Vandenberg Space Force Base

Loading…

Ближайшие Пролёты (ближайшие 24 часа)

TLE

СвежийSource: CelesTrak SupGP

Эпоха: Sep 14, 2026, 23:31 UTC

1 68390C 26063L   26257.98034722 -.00040838  00000+0 -12677-2 0  2576
2 68390  97.2862  41.8576 0000876  92.1599 316.8079 15.33460542    17

Отслеживайте STARLINK-37193 в реальном времени с AllMySat

Download on the App Store